www.pogodaiklimat.ru

Погода и климат >> Архив погоды >> Россия >> Приморский край >> Астраханка


ПОГОДА в Астраханке

  • Прогноз погоды в Астраханке
  • Монитор погоды в Астраханке

АРХИВ ПОГОДЫ в Астраханке

Время (UTC), дата Ветер
(напр.,м/с)
 
Видим.   Явления Облачность Т
(С)
Тd
(С)
f
(%)
Тe
(С)
Тes
(С)
Комфортность P
(гПа)
Po
(гПа)
Тmin
(С)
Tmax
(С)
R
(мм)
R24
(мм)
S
(см)
15 15.09 ЮЗ 3 50 км 6/0
[Ci sp]
+11.1 +7.9 81 +9 +9 1011.0 1001.6
18 15.09 ЮЗ 3 50 км 3/0
[Ci fib]
+11.1 +8.1 82 +9 +9 1011.1 1001.7
21 15.09 З 2 50 км 3/0
[Ac trans Ci sp]
+9.3 +6.7 84 +8 +8 1011.7 1002.2 +9.1
00 16.09 СЗ 2 50 км 3/0
[Ci fib]
+18.5 +9.3 55 +19 +24 1012.8 1003.6
03 16.09 СЗ 4 50 км 3/3 600 м
[Cu med, cong]
+20.2 +9.3 49 +22 +27 комфорт 1013.0 1003.9
06 16.09 СВ 8-10
{11}
50 км 3/3 600 м
[Cu med, cong]
+18.7 +11.0 61 +19 +19 1012.8 1003.7
09 16.09 С 9-11
{12}
50 км ясно +17.7 +7.3 50 +17 +17 1013.4 1004.2 +20.3
12 16.09 СЗ 1
{11}
50 км ясно +14.0 +2.0 44 +15 +15 1016.1 1006.7
15 16.09 З 1 50 км ясно +8.8 0.0 54 +9 +9 1017.6 1008.1
18 16.09 З 3 50 км ясно +9.5 +0.3 53 +8 +8 1017.5 1008.0
21 16.09 ЮЗ 1 50 км ясно +3.3 +1.2 86 +2 +2 1018.3 1008.6 +3.3
00 17.09 штиль 0 50 км ясно +14.1 +4.3 52 +14 +21 1018.3 1008.9 +3.2
03 17.09 ЮВ 2 50 км ясно +15.8 +5.6 51 +16 +27 1016.6 1007.4
06 17.09 ЮВ 5 50 км ясно +16.5 +8.2 58 +16 +19 1014.4 1005.1
09 17.09 ЮВ 2 20 км 1/0
[Ci fib]
+16.1 +8.9 62 +16 +16 1012.2 1003.0 +17.2
12 17.09 Ю 2 20 км ясно +10.2 +6.4 77 +9 +9 1011.4 1002.0
15 17.09 ЮЗ 3 20 км 3/0
[Ci fib]
+8.1 +6.1 87 +5 +5 1008.7 999.2
18 17.09 З 4 20 км 10/10 1000 м
[Cb cap]
+10.9 +9.7 92 +8 +8 1007.5 998.2
21 17.09 ЮЗ 2
{12}
50 км {ливн. осадки} 1/1 600 м
[Cb cap]
+8.9 +3.3 68 +7 +7 1010.8 1001.4 +8.0 0.3
00 18.09 З 5
{13}
50 км в посл. час ливневой дождь 8/8 300 м
[Cb cap]
+11.9 +2.2 51 +10 +10 1013.2 1003.8
03 18.09 СЗ 3
{13}
50 км 8/8 600 м
[Cu hum]
+12.4 -2.3 36 +11 +13 1014.5 1005.1
06 18.09 З 3
{11}
50 км 9/9 600 м
[Cb cap]
+12.6 -2.9 34 +12 +12 1013.4 1004.0
09 18.09 ЮЗ 3
{16}
50 км 3/3 600 м
[Cb cap]
+9.6 +1.3 56 +8 +8 1014.6 1005.1 +14.3 0.0
12 18.09 ЮЗ 2 50 км 3/0
[Ac lent]
+4.6 +1.1 78 +2 +2 1015.7 1006.0
15 18.09 Ю 2 50 км 1/0
[Ac lent]
+4.4 -0.1 73 +2 +2 1014.4 1004.8
18 18.09 ЮЗ 3 50 км 3/0
[Ac lent]
+3.2 -0.4 77 -1 -1 1013.6 1003.9
21 18.09 ЮЗ 3 50 км 3/3 600 м
[Sc Ac lent]
+3.4 -0.3 77 -0 -0 1013.0 1003.3 +3.2
00 19.09 З 3-12
{12}
50 км ясно +12.2 -0.8 41 +11 +15 1012.8 1003.5 +3.1
03 19.09 З 2
{13}
50 км 1/0
[Ci fib]
+16.0 -3.2 27 +16 +27 1012.7 1003.4
06 19.09 З 4
{12}
50 км 1/0
[Ci fib]
+17.6 -3.9 23 +17 +21 1012.2 1003.0
09 19.09 СЗ 3 50 км ясно +14.6 0.0 37 +14 +14 1014.3 1005.0 +17.8
12 19.09 ЮЗ 2 50 км ясно +7.0 +0.2 62 +5 +5 1016.8 1007.2
15 19.09 ЮЗ 2 50 км ясно +8.2 -0.7 53 +7 +7 1017.0 1007.4
18 19.09 ЮЗ 1 50 км ясно +3.2 0.0 80 +2 +2 1018.0 1008.3
21 19.09 З 2 50 км ясно +4.8 +0.1 72 +2 +2 1019.0 1009.3 +2.9
00 20.09 Ю 1 50 км ясно +12.9 +5.4 60 +13 +19 1019.7 1010.3
03 20.09 ЮВ 4 50 км ясно +14.4 +6.5 59 +13 +21 1019.5 1010.1
06 20.09 ЮВ 6 50 км ясно +15.2 +6.3 55 +14 +16 1018.1 1008.8
09 20.09 ЮВ 2 50 км 1/0
[Ac lent]
+15.1 +6.9 58 +15 +15 1018.4 1009.1 +15.6
12 20.09 ЮЗ 1 50 км ясно +9.3 +4.9 74 +9 +9 1019.1 1009.6
15 20.09 штиль 0 50 км 8/8 600 м
[Sc]
+9.0 +4.9 75 +8 +8 1018.5 1009.0
18 20.09 ЮЗ 3 4000 м ливневой дождь 10/10 600 м
[Cb cap]
+9.5 +9.0 97 +7 +7 1017.2 1007.7
21 20.09 ЮЗ 3 20 км {ливн. осадки} 6/6 600 м
[Sc diur, vesp]
+9.2 +8.5 95 +7 +7 1017.9 1008.4 +7.8 4
00 21.09 Ю 3 50 км {ливн. осадки} 1/0
[Ci fib]
+14.3 +10.7 79 +13 +17 1019.2 1009.8
03 21.09 СЗ 3 50 км 4/4 600 м
[Cu med, cong]
+19.2 +6.8 44 +20 +25 1019.5 1010.3
06 21.09 З 2
{11}
50 км 4/4 600 м
[Sc diur, vesp]
+19.9 +2.6 32 +21 +24 комфорт 1019.9 1010.7
09 21.09 З 2 20 км 3/3 600 м
[Sc diur, vesp]
+16.4 +4.6 45 +17 +17 1021.4 1012.1 +20.2
12 21.09 СЗ 2 20 км ясно +11.1 +5.5 68 +10 +10 1023.5 1014.0
15 21.09 ЮЗ 2 20 км 8/8 600 м
[Sc]
+8.4 +5.3 81 +7 +7 1024.4 1014.8
18 21.09 штиль 0 20 км ясно +5.5 +4.9 96 +4 +4 1024.8 1015.1
21 21.09 З 1 20 км ясно +8.7 +4.1 73 +8 +8 1025.1 1015.6 +4.9
00 22.09 СЗ 1 20 км 1/0
[Ci fib]
+14.2 +6.1 58 +15 +20 1025.9 1016.5
03 22.09 В 1 20 км 3/1 600 м
[Cu med, cong Ci fib]
+14.9 +7.9 63 +16 +26 1025.5 1016.1
06 22.09 ЮВ 2 50 км 3/0
[Ci fib]
+15.6 +7.1 57 +16 +21 1023.5 1014.2
09 22.09 ЮВ 1 50 км 8/0
[Ac As Ci]
+14.8 +8.1 64 +15 +15 1023.1 1013.7 +15.8
12 22.09 З 1 50 км 8/0
[Ci fib]
+11.9 +8.0 77 +12 +12 1022.4 1013.0

 

Местоположение метеостанции Астраханка (Приморский край, Россия): широта 44.72 долгота 132.00 высота над уровнем моря 78 м.

В архиве по умолчанию представлена погода в Астраханке за последнюю неделю. Архивные данные за месяц целиком и за предыдущие месяцы, начиная с января 2011 года, Вы можете получить, выбрав интересующий диапазон дат из раскрывающегося списка и нажав кнопку "Ввод!".


*Определитесь, кто Вы:
робот инопланетянин человек

Внимание! Время в таблицах - всемирное. Для получения местного времени необходимо прибавить поправку, которая равна 10 ч.

Смотрите также архив погоды в соседних городах и на ближайших метеорологических станциях:

Погода в Хороле (Приморский край, Россия) (32 км)
Погода в Турьем Роге (Приморский край, Россия) (55 км)
Погода в Спасск-Дальнем (Приморский край, Россия) (64 км)
Погода в Пограничном (Приморский край, Россия) (66 км)
Погода в Суйфэньхэ (Хэйлунцзян, Китай) (77 км)
Погода в Свиягино (Приморский край, Россия) (79 км)
Погода в Тимирязевском (Приморский край, Россия) (94 км)
Погода в Полтавке (Приморский край, Россия) (95 км)
Погода в Цзиси (Хэйлунцзян, Китай) (104 км)
Погода в Анучино (Приморский край, Россия) (115 км)

Пояснения к столбцам:

Ветер - указаны скорость ветра в м/с - средняя за 10 мин, порывы в срок и между сроками (в фигурных скобках) и направление, откуда дует ветер: С - северный, СВ - северо-восточный, В - восточный, ЮВ - юго-восточный, Ю - южный, ЮЗ - юго-западный, З - западный, СЗ - северо-западный.
Видимость - горизонтальная дальность видимости в метрах или километрах. При видимости от 1 до 10 км при отсутствии осадков обычно наблюдается дымка, при ухудшении видимости до 1 км и менее - туман. В сухую погоду видимость может ухудшаться дымом, пылью или мглою.
Явления - указаны атмосферные явления, наблюдавшиеся в срок или в последний час перед сроком; фигурными скобками обозначены явления, наблюдавшиеся между сроками (за 1-3 часа до срока); квадратными скобками обозначены град или гололедные отложения с указанием их диаметра в мм.
Облачность - указаны через наклонную черту общая и нижняя облачность в баллах и высота нижней границы облаков в метрах; квадратными скобками обозначены формы облаков: Ci - перистые, Cs - перисто-слоистые, Cc - перисто-кучевые, Ac - высококучевые, As - высокослоистые, Sc - слоисто-кучевые, Ns - слоисто-дождевые, Cu - кучевые, Cb - кучево-дождевые. Подробнее классификацию облаков см. в Атласе облаков (PDF).
T - Температура воздуха - температура, измеренная на высоте 2 м над землей.
Td - Температура точки росы - температура, при понижении до которой содержащийся в воздухе водяной пар достигнет насыщения.
f - Относительная влажность воздуха - влажноcть воздуха, измеренная на высоте 2 м над землей.
Te - Эффективная температура - температура, которую ощущает одетый по сезону человек в тени. Характеристика душности погоды. При расчете учитывается влияние влажности воздуха и скорости ветра на теплоощущения человека.
Tes - Эффективная температура на солнце - температура, которую ощущает человек, с поправкой на солнечный нагрев. Характеристика знойности погоды. Зависит от высоты солнца над горизонтом, облачности и скорости ветра. Ночью, в пасмурную погоду, а также при ветре 12 м/с и более поправка равна нулю.
P - Атмосферное давление - приведенное к уровню моря атмосферное давление.
Po - Атмосферное давление - измеренное на уровне метеостанции атмосферное давление.
Tmin - Минимальная температура - минимум температуры воздуха на высоте 2 м над землей.
Tmax - Максимальная температура - максимум температуры воздуха на высоте 2 м над землей.
R - Количество осадков - Количество выпавших осадков за период времени, мм. При наведении курсора мыши на число - период времени, за который выпало указанное количество осадков.
R24 - Количество осадков - Количество выпавших осадков за 24 часа, мм.
S - Снежный покров - Высота снежного покрова, см. При наведении курсора мыши на число - состояние снежного покрова и степень покрытия местности в баллах.